FDX1638 KRDU-KIND

Flight info

Callsign FDX1638
Flight time 1h 19m
Altitude 30000
Route LWOOD5 DANCO ZIEBR HAGAL GIIBS4
Aircraft MD11/H-SDE1E2E3FGHIJ2J3J4J5M1RWXY/LB1D1

Departure

Time 2026-05-07 00:18
Airport Raleigh-Durham International Airport (KRDU)

Arrival

Time 2026-05-07 01:38
Airport Indianapolis International Airport (KIND)
Time Latitude Longitude Altitude Speed Heading
2026-05-06 23:23 35.89072 -78.77602 399 ft 0 kts 135°
2026-05-06 23:49 35.89073 -78.77603 399 ft 0 kts 135°
2026-05-06 23:49 35.89072 -78.77602 399 ft 0 kts 135°
2026-05-07 00:00 35.89077 -78.77608 399 ft 2 kts 135°
2026-05-07 00:00 35.89086 -78.77619 395 ft 2 kts 135°
2026-05-07 00:01 35.89102 -78.77637 398 ft 3 kts 159°
2026-05-07 00:01 35.89111 -78.77641 397 ft 3 kts 182°
2026-05-07 00:01 35.89126 -78.77638 396 ft 3 kts 216°
2026-05-07 00:01 35.89141 -78.77622 398 ft 3 kts 225°
2026-05-07 00:02 35.89149 -78.77613 399 ft 1 kts 224°
2026-05-07 00:05 35.89122 -78.77646 397 ft 7 kts 226°
2026-05-07 00:05 35.89073 -78.77707 398 ft 13 kts 224°
2026-05-07 00:05 35.89008 -78.77786 399 ft 12 kts 225°
2026-05-07 00:05 35.88956 -78.77856 396 ft 10 kts 232°
2026-05-07 00:06 35.88923 -78.77936 395 ft 12 kts 246°
2026-05-07 00:06 35.88874 -78.78029 395 ft 14 kts 228°
2026-05-07 00:06 35.88812 -78.78106 396 ft 12 kts 225°
2026-05-07 00:06 35.88754 -78.78178 394 ft 10 kts 225°
2026-05-07 00:07 35.88733 -78.78206 393 ft 0 kts 232°
2026-05-07 00:07 35.88733 -78.78207 393 ft 1 kts 232°
2026-05-07 00:07 35.88727 -78.78239 396 ft 5 kts 275°
2026-05-07 00:08 35.88761 -78.78259 396 ft 7 kts
2026-05-07 00:08 35.88824 -78.78196 399 ft 19 kts 44°
2026-05-07 00:08 35.88913 -78.78087 399 ft 17 kts 45°
2026-05-07 00:08 35.88975 -78.77983 395 ft 14 kts 63°
2026-05-07 00:09 35.89013 -78.77888 394 ft 11 kts 53°
2026-05-07 00:09 35.89057 -78.77828 393 ft 9 kts 45°
2026-05-07 00:09 35.89118 -78.77753 396 ft 11 kts 45°
2026-05-07 00:09 35.89135 -78.77732 397 ft 0 kts 45°
2026-05-07 00:10 35.89135 -78.77731 398 ft 1 kts 45°
2026-05-07 00:10 35.89152 -78.77711 398 ft 0 kts 44°
2026-05-07 00:10 35.89162 -78.77699 395 ft 5 kts 45°
2026-05-07 00:11 35.89181 -78.77675 394 ft 3 kts 45°
2026-05-07 00:11 35.89196 -78.77657 394 ft 4 kts 45°
2026-05-07 00:11 35.89205 -78.77648 398 ft 0 kts 36°
2026-05-07 00:13 35.89206 -78.77648 398 ft 1 kts 29°
2026-05-07 00:13 35.89225 -78.77649 398 ft 5 kts 353°
2026-05-07 00:13 35.89246 -78.77663 395 ft 3 kts 318°
2026-05-07 00:13 35.89250 -78.77667 395 ft 0 kts 317°
2026-05-07 00:14 35.89262 -78.77681 398 ft 2 kts 316°
2026-05-07 00:14 35.89279 -78.77701 397 ft 7 kts 315°
2026-05-07 00:14 35.89299 -78.77725 399 ft 0 kts 315°
2026-05-07 00:17 35.89318 -78.77748 400 ft 10 kts 315°
2026-05-07 00:17 35.89359 -78.77827 399 ft 5 kts 272°
2026-05-07 00:17 35.89341 -78.77858 399 ft 6 kts 228°
2026-05-07 00:18 35.89234 -78.77991 392 ft 55 kts 225°
2026-05-07 00:18 35.88776 -78.78554 398 ft 127 kts 225°
2026-05-07 00:18 35.88022 -78.79481 459 ft 170 kts 225°
2026-05-07 00:18 35.87150 -78.80527 1087 ft 170 kts 223°
2026-05-07 00:19 35.86418 -78.81397 1559 ft 137 kts 224°
2026-05-07 00:19 35.85590 -78.82336 1693 ft 167 kts 225°
2026-05-07 00:19 35.84793 -78.83262 2673 ft 158 kts 224°
2026-05-07 00:19 35.83993 -78.84175 3479 ft 157 kts 226°
2026-05-07 00:20 35.83120 -78.85150 3793 ft 184 kts 225°
2026-05-07 00:20 35.82189 -78.86302 4184 ft 191 kts 239°
2026-05-07 00:20 35.81856 -78.87849 4734 ft 191 kts 272°
2026-05-07 00:20 35.82357 -78.89407 5164 ft 213 kts 298°
2026-05-07 00:21 35.83323 -78.90988 5368 ft 248 kts 303°
2026-05-07 00:21 35.84425 -78.92694 5941 ft 255 kts 303°
2026-05-07 00:21 35.85516 -78.94419 6317 ft 257 kts 303°
2026-05-07 00:21 35.86586 -78.96162 7260 ft 256 kts 302°
2026-05-07 00:22 35.87654 -78.97940 8121 ft 260 kts 301°
2026-05-07 00:22 35.88726 -78.99756 8967 ft 264 kts 301°
2026-05-07 00:22 35.89806 -79.01606 9759 ft 272 kts 301°
2026-05-07 00:22 35.90913 -79.03519 10245 ft 276 kts 301°
2026-05-07 00:23 35.92076 -79.05552 10394 ft 305 kts 301°
2026-05-07 00:23 35.93337 -79.07767 10530 ft 333 kts 301°
2026-05-07 00:23 35.94695 -79.10149 10897 ft 341 kts 301°
2026-05-07 00:23 35.96070 -79.12552 11253 ft 343 kts 301°
2026-05-07 00:24 35.97450 -79.14967 12069 ft 344 kts 301°
2026-05-07 00:24 35.98833 -79.17393 12930 ft 347 kts 301°
2026-05-07 00:24 36.00229 -79.19849 13736 ft 351 kts 302°
2026-05-07 00:24 36.01635 -79.22326 14465 ft 353 kts 301°
2026-05-07 00:25 36.03019 -79.24833 15175 ft 353 kts 297°
2026-05-07 00:25 36.04166 -79.27498 15918 ft 351 kts 292°
2026-05-07 00:25 36.05171 -79.30249 16654 ft 351 kts 291°
2026-05-07 00:25 36.06140 -79.33030 17365 ft 353 kts 291°
2026-05-07 00:26 36.07333 -79.35693 18050 ft 358 kts 302°
2026-05-07 00:26 36.09077 -79.37936 18647 ft 368 kts 315°
2026-05-07 00:26 36.11219 -79.39749 19136 ft 377 kts 322°
2026-05-07 00:26 36.13504 -79.41388 19622 ft 382 kts 323°
2026-05-07 00:27 36.15838 -79.42998 20115 ft 386 kts 323°
2026-05-07 00:27 36.18152 -79.44607 20611 ft 388 kts 323°
2026-05-07 00:27 36.20511 -79.46276 21129 ft 391 kts 323°
2026-05-07 00:27 36.22870 -79.47972 21641 ft 393 kts 322°
2026-05-07 00:28 36.25238 -79.49693 22149 ft 396 kts 322°
2026-05-07 00:28 36.27615 -79.51431 22676 ft 399 kts 322°
2026-05-07 00:28 36.30014 -79.53192 23216 ft 402 kts 322°
2026-05-07 00:28 36.32426 -79.54966 23717 ft 405 kts 322°
2026-05-07 00:29 36.34854 -79.56755 24170 ft 408 kts 322°
2026-05-07 00:29 36.37311 -79.58566 24636 ft 411 kts 322°
2026-05-07 00:30 36.44752 -79.64057 26022 ft 421 kts 321°
2026-05-07 00:30 36.47279 -79.65925 26483 ft 425 kts 321°
2026-05-07 00:30 36.49828 -79.67810 26930 ft 428 kts 321°
2026-05-07 00:30 36.52403 -79.69716 27377 ft 431 kts 321°
2026-05-07 00:31 36.54994 -79.71636 27801 ft 435 kts 321°
2026-05-07 00:31 36.57544 -79.73656 28206 ft 433 kts 316°
2026-05-07 00:31 36.59766 -79.76120 28634 ft 424 kts 304°
2026-05-07 00:31 36.61559 -79.79015 29037 ft 421 kts 298°
2026-05-07 00:32 36.63138 -79.82078 29458 ft 421 kts 296°
2026-05-07 00:32 36.64663 -79.85204 29843 ft 424 kts 295°
2026-05-07 00:32 36.66204 -79.88363 29949 ft 429 kts 296°
2026-05-07 00:32 36.67785 -79.91544 29968 ft 434 kts 296°
2026-05-07 00:33 36.71026 -79.97903 29971 ft 435 kts 296°
2026-05-07 00:33 36.74305 -80.04250 29966 ft 435 kts 296°
2026-05-07 00:34 36.77586 -80.10599 29959 ft 435 kts 296°
2026-05-07 00:34 36.80860 -80.16951 29949 ft 435 kts 296°
2026-05-07 00:35 36.84123 -80.23298 29939 ft 435 kts 296°
2026-05-07 00:35 36.87386 -80.29655 29926 ft 434 kts 296°
2026-05-07 00:36 36.90640 -80.36008 29923 ft 434 kts 295°
2026-05-07 00:36 36.93884 -80.42354 29935 ft 433 kts 295°
2026-05-07 00:37 36.97100 -80.48656 29942 ft 432 kts 295°
2026-05-07 00:37 37.00325 -80.54986 29941 ft 430 kts 295°
2026-05-07 00:38 37.03526 -80.61281 29953 ft 428 kts 294°
2026-05-07 00:38 37.06700 -80.67576 29948 ft 426 kts 294°
2026-05-07 00:39 37.09684 -80.73924 29956 ft 417 kts 287°
2026-05-07 00:39 37.11716 -80.80642 29952 ft 410 kts 282°
2026-05-07 00:40 37.13487 -80.87396 29939 ft 409 kts 281°
2026-05-07 00:40 37.15288 -80.94157 29934 ft 409 kts 282°
2026-05-07 00:41 37.17121 -81.00913 29946 ft 408 kts 282°
2026-05-07 00:41 37.18955 -81.07645 29958 ft 408 kts 282°
2026-05-07 00:42 37.20786 -81.14375 29967 ft 407 kts 282°
2026-05-07 00:42 37.22596 -81.21047 29972 ft 406 kts 282°
2026-05-07 00:43 37.24412 -81.27758 29973 ft 405 kts 282°
2026-05-07 00:43 37.26217 -81.34450 29969 ft 405 kts 282°
2026-05-07 00:44 37.28019 -81.41147 29959 ft 404 kts 282°
2026-05-07 00:44 37.29811 -81.47823 29957 ft 403 kts 281°
2026-05-07 00:45 37.31585 -81.54448 29949 ft 402 kts 282°
2026-05-07 00:45 37.33365 -81.61111 29938 ft 402 kts 281°
2026-05-07 00:46 37.35139 -81.67775 29940 ft 402 kts 281°
2026-05-07 00:46 37.36897 -81.74427 29953 ft 400 kts 281°
2026-05-07 00:47 37.38632 -81.81076 29964 ft 400 kts 281°
2026-05-07 00:47 37.40375 -81.87717 29957 ft 400 kts 281°
2026-05-07 00:48 37.41826 -81.93230 29958 ft 399 kts 281°
2026-05-07 00:48 37.43572 -81.99869 29958 ft 399 kts 281°
2026-05-07 00:49 37.45309 -82.06494 29952 ft 398 kts 281°
2026-05-07 00:49 37.47044 -82.13114 29969 ft 398 kts 281°
2026-05-07 00:50 37.48766 -82.19715 29978 ft 397 kts 281°
2026-05-07 00:50 37.50474 -82.26276 29993 ft 397 kts 281°
2026-05-07 00:51 37.52189 -82.32882 29994 ft 396 kts 281°
2026-05-07 00:51 37.53893 -82.39460 30033 ft 395 kts 281°
2026-05-07 00:52 37.55592 -82.46037 30022 ft 394 kts 281°
2026-05-07 00:52 37.57288 -82.52624 30026 ft 395 kts 281°
2026-05-07 00:53 37.58978 -82.59195 30024 ft 393 kts 281°
2026-05-07 00:53 37.60658 -82.65754 30020 ft 392 kts 281°
2026-05-07 00:54 37.62316 -82.72252 30017 ft 392 kts 281°
2026-05-07 00:54 37.63957 -82.78803 30004 ft 391 kts 281°
2026-05-07 00:55 37.65575 -82.85353 29997 ft 390 kts 279°
2026-05-07 00:55 37.66976 -82.91944 29995 ft 388 kts 278°
2026-05-07 00:56 37.68317 -82.98548 29997 ft 388 kts 278°
2026-05-07 00:56 37.69661 -83.05149 30000 ft 388 kts 278°
2026-05-07 00:57 37.71009 -83.11758 30002 ft 388 kts 278°
2026-05-07 00:57 37.72354 -83.18361 30000 ft 388 kts 278°
2026-05-07 00:58 37.73697 -83.24973 30010 ft 388 kts 278°
2026-05-07 00:58 37.75029 -83.31548 30005 ft 388 kts 278°
2026-05-07 00:59 37.77031 -83.41470 30012 ft 388 kts 278°
2026-05-07 01:00 37.78361 -83.48091 30009 ft 388 kts 278°
2026-05-07 01:00 37.79687 -83.54705 30007 ft 388 kts 278°
2026-05-07 01:01 37.81006 -83.61313 29998 ft 387 kts 277°
2026-05-07 01:01 37.82322 -83.67924 29995 ft 387 kts 277°
2026-05-07 01:02 37.83635 -83.74541 30004 ft 386 kts 277°
2026-05-07 01:02 37.84936 -83.81114 30014 ft 385 kts 277°
2026-05-07 01:03 37.86215 -83.87636 30015 ft 383 kts 277°
2026-05-07 01:03 37.87473 -83.94184 30018 ft 382 kts 277°
2026-05-07 01:04 37.88738 -84.00710 30022 ft 381 kts 277°
2026-05-07 01:04 37.90005 -84.07218 30024 ft 380 kts 277°
2026-05-07 01:05 37.91267 -84.13701 30018 ft 378 kts 277°
2026-05-07 01:05 37.92523 -84.20175 30016 ft 378 kts 277°
2026-05-07 01:06 37.93765 -84.26598 30008 ft 377 kts 277°
2026-05-07 01:06 37.95009 -84.33049 30015 ft 377 kts 277°
2026-05-07 01:07 37.96249 -84.39500 30021 ft 377 kts 277°
2026-05-07 01:07 37.97486 -84.45955 30022 ft 376 kts 277°
2026-05-07 01:08 37.98718 -84.52408 30030 ft 376 kts 277°
2026-05-07 01:08 37.99945 -84.58853 30029 ft 376 kts 277°
2026-05-07 01:09 38.01162 -84.65265 30030 ft 376 kts 277°
2026-05-07 01:09 38.02382 -84.71716 30029 ft 376 kts 277°
2026-05-07 01:10 38.03599 -84.78172 30024 ft 376 kts 277°
2026-05-07 01:10 38.04812 -84.84625 30021 ft 376 kts 277°
2026-05-07 01:11 38.06013 -84.91098 30028 ft 376 kts 276°
2026-05-07 01:11 38.07194 -84.97562 30029 ft 376 kts 277°
2026-05-07 01:12 38.08383 -85.04018 30027 ft 376 kts 277°
2026-05-07 01:12 38.09570 -85.10435 30028 ft 376 kts 277°
2026-05-07 01:13 38.10765 -85.16901 30030 ft 376 kts 276°
2026-05-07 01:13 38.11957 -85.23370 30036 ft 376 kts 276°
2026-05-07 01:14 38.13146 -85.29843 30031 ft 376 kts 276°
2026-05-07 01:14 38.14332 -85.36312 30038 ft 376 kts 277°
2026-05-07 01:15 38.15886 -85.42707 30029 ft 384 kts 284°
2026-05-07 01:15 38.18501 -85.48698 30029 ft 399 kts 295°
2026-05-07 01:16 38.22309 -85.54040 30032 ft 419 kts 306°
2026-05-07 01:16 38.24638 -85.56353 30027 ft 431 kts 311°
2026-05-07 01:16 38.27242 -85.58360 30029 ft 444 kts 318°
2026-05-07 01:16 38.30101 -85.60000 30034 ft 458 kts 324°
2026-05-07 01:17 38.33198 -85.61212 30024 ft 474 kts 332°
2026-05-07 01:17 38.36490 -85.61976 30023 ft 486 kts 337°
2026-05-07 01:17 38.39872 -85.62476 30025 ft 492 kts 339°
2026-05-07 01:18 38.46701 -85.63292 30031 ft 492 kts 339°
2026-05-07 01:18 38.50080 -85.63716 29856 ft 480 kts 339°
2026-05-07 01:18 38.53372 -85.64159 29324 ft 474 kts 338°
2026-05-07 01:18 38.56607 -85.64635 28668 ft 473 kts 338°
2026-05-07 01:19 38.59879 -85.65132 28019 ft 475 kts 338°
2026-05-07 01:19 38.63177 -85.65635 27335 ft 477 kts 338°
2026-05-07 01:19 38.66492 -85.66135 26660 ft 480 kts 338°
2026-05-07 01:19 38.69822 -85.66633 25986 ft 482 kts 339°
2026-05-07 01:20 38.73169 -85.67128 25370 ft 483 kts 339°
2026-05-07 01:20 38.76507 -85.67615 25032 ft 483 kts 339°
2026-05-07 01:20 38.79841 -85.68100 24683 ft 481 kts 339°
2026-05-07 01:20 38.83161 -85.68585 24079 ft 481 kts 339°
2026-05-07 01:21 38.86470 -85.69068 23163 ft 476 kts 340°
2026-05-07 01:21 38.89738 -85.69543 22179 ft 469 kts 340°
2026-05-07 01:21 38.92951 -85.70010 21279 ft 462 kts 340°
2026-05-07 01:21 38.96119 -85.70473 20542 ft 454 kts 340°
2026-05-07 01:22 38.99231 -85.70931 19870 ft 447 kts 341°
2026-05-07 01:22 39.02313 -85.71393 19221 ft 441 kts 341°
2026-05-07 01:22 39.05334 -85.71890 18590 ft 435 kts 340°
2026-05-07 01:22 39.06304 -85.72059 18383 ft 433 kts 340°
2026-05-07 01:23 39.08257 -85.72406 17909 ft 428 kts 340°
2026-05-07 01:23 39.11186 -85.72938 17233 ft 423 kts 340°
2026-05-07 01:23 39.14084 -85.73491 16582 ft 414 kts 338°
2026-05-07 01:23 39.16804 -85.74456 15971 ft 398 kts 329°
2026-05-07 01:24 39.19347 -85.75773 15390 ft 389 kts 326°
2026-05-07 01:24 39.21799 -85.77210 14836 ft 385 kts 325°
2026-05-07 01:24 39.24224 -85.78675 14285 ft 382 kts 325°
2026-05-07 01:24 39.26626 -85.80119 13719 ft 380 kts 326°
2026-05-07 01:25 39.29016 -85.81541 13217 ft 377 kts 326°
2026-05-07 01:25 39.31359 -85.82920 12330 ft 374 kts 327°
2026-05-07 01:25 39.33609 -85.84517 11445 ft 364 kts 320°
2026-05-07 01:25 39.35639 -85.86424 10602 ft 359 kts 317°
2026-05-07 01:26 39.37584 -85.88447 9796 ft 356 kts 317°
2026-05-07 01:26 39.39400 -85.90382 9649 ft 319 kts 317°
2026-05-07 01:26 39.41027 -85.92109 9488 ft 287 kts 317°
2026-05-07 01:26 39.42530 -85.93702 9358 ft 272 kts 317°
2026-05-07 01:27 39.43893 -85.95148 9207 ft 261 kts 317°
2026-05-07 01:27 39.45289 -85.96627 8831 ft 258 kts 317°
2026-05-07 01:27 39.46697 -85.98070 8416 ft 257 kts 319°
2026-05-07 01:27 39.48110 -85.99480 8047 ft 256 kts 319°
2026-05-07 01:28 39.49522 -86.00880 7648 ft 255 kts 320°
2026-05-07 01:28 39.50930 -86.02273 7256 ft 254 kts 320°
2026-05-07 01:28 39.52333 -86.03660 6871 ft 253 kts 320°
2026-05-07 01:28 39.53733 -86.05043 6489 ft 252 kts 320°
2026-05-07 01:29 39.55109 -86.06402 6086 ft 252 kts 321°
2026-05-07 01:29 39.56519 -86.07795 5673 ft 251 kts 321°
2026-05-07 01:29 39.57910 -86.09169 5288 ft 251 kts 321°
2026-05-07 01:29 39.59334 -86.10392 4907 ft 250 kts 334°
2026-05-07 01:30 39.61021 -86.10909 4490 ft 252 kts 356°
2026-05-07 01:30 39.62768 -86.10770 4141 ft 251 kts
2026-05-07 01:30 39.64466 -86.10498 4020 ft 241 kts
2026-05-07 01:30 39.66117 -86.10224 4015 ft 239 kts
2026-05-07 01:31 39.67767 -86.09950 4014 ft 239 kts
2026-05-07 01:31 39.69411 -86.09674 4015 ft 239 kts
2026-05-07 01:31 39.71058 -86.09398 4015 ft 239 kts
2026-05-07 01:31 39.72694 -86.09123 4007 ft 233 kts
2026-05-07 01:32 39.74272 -86.08853 3871 ft 227 kts
2026-05-07 01:32 39.75841 -86.08583 3544 ft 227 kts
2026-05-07 01:32 39.77403 -86.08315 3238 ft 226 kts
2026-05-07 01:32 39.78951 -86.08049 3028 ft 222 kts
2026-05-07 01:33 39.80491 -86.07783 3018 ft 224 kts
2026-05-07 01:33 39.82007 -86.08017 2999 ft 218 kts 333°
2026-05-07 01:33 39.83292 -86.09047 3023 ft 219 kts 322°
2026-05-07 01:33 39.84313 -86.10472 2929 ft 217 kts 296°
2026-05-07 01:34 39.84551 -86.12363 2871 ft 221 kts 261°
2026-05-07 01:34 39.83775 -86.14186 3056 ft 246 kts 224°
2026-05-07 01:34 39.82820 -86.15006 2997 ft 252 kts 210°
2026-05-07 01:34 39.81287 -86.15979 2914 ft 231 kts 212°
2026-05-07 01:35 39.80060 -86.17093 2915 ft 202 kts 223°
2026-05-07 01:35 39.79143 -86.18321 2560 ft 178 kts 234°
2026-05-07 01:35 39.78168 -86.19959 2133 ft 168 kts 233°
2026-05-07 01:35 39.77657 -86.20704 2085 ft 164 kts 230°
2026-05-07 01:36 39.76838 -86.21711 1938 ft 160 kts 226°
2026-05-07 01:36 39.76031 -86.22701 1804 ft 159 kts 230°
2026-05-07 01:36 39.75289 -86.23749 1661 ft 159 kts 225°
2026-05-07 01:36 39.74484 -86.24740 1463 ft 159 kts 226°
2026-05-07 01:37 39.73701 -86.25760 1275 ft 159 kts 226°
2026-05-07 01:37 39.72919 -86.26748 1077 ft 158 kts 227°
2026-05-07 01:37 39.72137 -86.27749 849 ft 158 kts 226°
2026-05-07 01:37 39.71408 -86.28684 790 ft 125 kts 225°
2026-05-07 01:38 39.70938 -86.29278 788 ft 55 kts 224°
2026-05-07 01:38 39.70799 -86.29389 789 ft 7 kts 155°
2026-05-07 01:38 39.70772 -86.29358 789 ft 4 kts 146°
2026-05-07 01:38 39.70752 -86.29355 789 ft 6 kts 179°
2026-05-07 01:39 39.70694 -86.29395 789 ft 10 kts 216°
2026-05-07 01:39 39.70639 -86.29447 789 ft 10 kts 214°
2026-05-07 01:39 39.70560 -86.29491 789 ft 10 kts 185°
2026-05-07 01:39 39.70513 -86.29451 788 ft 10 kts 133°
2026-05-07 01:40 39.70498 -86.29383 788 ft 8 kts 72°
2026-05-07 01:40 39.70540 -86.29320 788 ft 9 kts 46°
2026-05-07 01:40 39.70582 -86.29268 788 ft 10 kts 43°
2026-05-07 01:40 39.70632 -86.29203 788 ft 3 kts 48°
2026-05-07 01:41 39.70637 -86.29185 788 ft 2 kts 79°
2026-05-07 01:41 39.70630 -86.29166 788 ft 2 kts 121°
2026-05-07 01:41 39.70616 -86.29148 788 ft 3 kts 135°
2026-05-07 01:41 39.70601 -86.29128 788 ft 0 kts 135°